Weather History for Del Bajio, Mexico

Change the Weather History Date:

Monday, February 18, 2013

  Actual Average Record
Temperature  
Mean Temperature 65 °F -  
Max Temperature 86 °F 78 °F 89 °F (2009)
Min Temperature 44 °F 45 °F 39 °F (1998)
Growing Degree Days 15 (Base 50)    
Moisture  
Dew Point 27 °F    
Average Humidity 28    
Maximum Humidity 57    
Minimum Humidity 9    
Precipitation  
Precipitation 0.00 in - - ()
Sea Level Pressure  
Sea Level Pressure 30.10 in    
Wind  
Wind Speed 3 mph ()    
Max Wind Speed 17 mph    
Max Gust Speed -    
Visibility 8.7 miles    
Events      
Averages and records for this station are not official NWS values.
T = Trace of Precipitation, MM = Missing Value Source: Averaged Metar Reports

Daily Weather History Graph

Daily Weather History Graph

Search for Another Location

Airport:

Trip Planner

Search our weather history database for the weather conditions in past years. The results will help you decide how hot, cold, wet, or windy it might be!

Date:

Astronomy

Feb. 18, 2013 Rise Set
Actual Time 7:14 AM CST 6:45 PM CST
Civil Twilight 6:51 AM CST 7:08 PM CST
Nautical Twilight 6:25 AM CST 7:34 PM CST
Astronomical Twilight 5:59 AM CST 8:00 PM CST
Moon 12:53 PM CST (2/18) 1:35 AM CST (2/18)
Length of Visible Light 12h 16m
Length of Day
11h 31m
First Quarter, 58% of the Moon is Illuminated
Feb 18
First Quarter
Feb 25
Full
Mar 4
Last Quarter
Mar 11
New
Mar 19
First Quarter

Hourly Weather History & Observations

Time (CST) Temp. Windchill Dew Point Humidity Pressure Visibility Wind Dir Wind Speed Gust Speed Precip Events Conditions
12:06 AM 57.2 °F - 32.0 °F 38% 29.91 in 8.0 mi Calm Calm - N/A   Clear
3:55 AM 48.2 °F - 32.0 °F 54% 30.21 in 8.0 mi Calm Calm - N/A   Clear
5:03 AM 46.4 °F - 30.2 °F 53% 30.24 in 8.0 mi Calm Calm - N/A   Clear
5:43 AM 46.4 °F 45.2 °F 28.4 °F 50% 29.88 in 8.0 mi NNE 3.5 mph - N/A   Clear
6:42 AM 44.6 °F - 30.2 °F 57% 30.27 in 8.0 mi Calm Calm - N/A   Clear
7:45 AM 46.4 °F 44.3 °F 28.4 °F 50% 30.26 in 7.0 mi NNE 4.6 mph - N/A   Clear
8:42 AM 60.8 °F - 30.2 °F 31% 29.99 in 8.0 mi Calm Calm - N/A   Clear
9:42 AM 71.6 °F - 32.0 °F 23% 30.29 in 8.0 mi Calm Calm - N/A   Clear
10:43 AM 73.4 °F - 30.2 °F 20% 30.28 in 10.0 mi WSW 5.8 mph - N/A   Clear
12:50 PM 82.4 °F - 30.2 °F 15% 30.24 in 10.0 mi West 6.9 mph - N/A   Clear
1:51 PM 82.4 °F - 28.4 °F 14% 30.21 in 10.0 mi West 17.3 mph - N/A   Clear
2:41 PM 84.2 °F - 26.6 °F 12% 29.83 in 10.0 mi West 9.2 mph - N/A   Clear
3:48 PM 86.0 °F - 21.2 °F 9% 30.12 in 10.0 mi WNW 16.1 mph - N/A   Clear
4:57 PM 86.0 °F - 24.8 °F 11% 30.12 in 10.0 mi NW 10.4 mph - N/A   Clear
5:49 PM 82.4 °F - 19.4 °F 10% 29.78 in 10.0 mi West 6.9 mph - N/A   Clear
7:46 PM 71.6 °F - 23.0 °F 16% 30.15 in 10.0 mi Calm Calm - N/A   Clear
8:44 PM 66.2 °F - 23.0 °F 19% 29.84 in 8.0 mi Calm Calm - N/A   Clear
9:40 PM 62.6 °F - 23.0 °F 22% 30.20 in 8.0 mi Calm Calm - N/A   Clear
10:40 PM 60.8 °F - 23.0 °F 23% 30.20 in 8.0 mi Calm Calm - N/A   Clear
11:41 PM 59.0 °F - 23.0 °F 25% 29.90 in 8.0 mi NNE 5.8 mph - N/A   Clear